Time,TemperatureF,DewpointF,PressureIn,WindDirection,WindDirectionDegrees,WindSpeedMPH,WindSpeedGustMPH,Humidity,HourlyPrecipIn,Conditions,Clouds,dailyrainin,SoftwareType,DateUTC
2013-05-13 00:00:00,62.0,45.0,26.87,West,270,0.0,6.0,54,0.00,,,0.00,Rainwise IP-100,2013-05-13 06:00:00,
2013-05-13 00:05:00,63.0,47.0,26.87,NNE,22,0.0,5.0,55,0.00,,,0.00,Rainwise IP-100,2013-05-13 06:05:00,
2013-05-13 00:10:00,62.0,46.0,26.87,NNE,22,0.0,4.0,55,0.00,,,0.00,Rainwise IP-100,2013-05-13 06:10:00,
2013-05-13 00:15:00,62.0,46.0,26.87,NNE,22,0.0,3.0,56,0.00,,,0.00,Rainwise IP-100,2013-05-13 06:15:00,
2013-05-13 00:20:00,62.0,46.0,26.87,WNW,292,3.0,4.0,56,0.00,,,0.00,Rainwise IP-100,2013-05-13 06:20:00,
2013-05-13 00:25:00,62.0,46.0,26.87,SSW,202,0.0,5.0,55,0.00,,,0.00,Rainwise IP-100,2013-05-13 06:25:00,
2013-05-13 00:30:00,63.0,47.0,26.87,SSE,157,0.0,4.0,55,0.00,,,0.00,Rainwise IP-100,2013-05-13 06:30:00,
2013-05-13 00:35:00,63.0,46.0,26.87,ENE,67,0.0,4.0,54,0.00,,,0.00,Rainwise IP-100,2013-05-13 06:35:00,
2013-05-13 00:40:00,63.0,46.0,26.87,ENE,67,0.0,2.0,54,0.00,,,0.00,Rainwise IP-100,2013-05-13 06:40:00,
2013-05-13 00:45:00,64.0,46.0,26.86,ENE,67,0.0,3.0,52,0.00,,,0.00,Rainwise IP-100,2013-05-13 06:45:00,
2013-05-13 00:50:00,64.0,47.0,26.86,ENE,67,0.0,2.0,53,0.00,,,0.00,Rainwise IP-100,2013-05-13 06:50:00,
2013-05-13 00:55:00,64.0,47.0,26.86,ENE,67,0.0,1.0,53,0.00,,,0.00,Rainwise IP-100,2013-05-13 06:55:00,
2013-05-13 01:00:00,63.0,46.0,26.86,ENE,67,0.0,1.0,53,0.00,,,0.00,Rainwise IP-100,2013-05-13 07:00:00,
2013-05-13 01:05:00,63.0,47.0,26.87,West,270,1.0,3.0,55,0.00,,,0.00,Rainwise IP-100,2013-05-13 07:05:00,
2013-05-13 01:10:00,63.0,47.0,26.87,West,270,0.0,2.0,55,0.00,,,0.00,Rainwise IP-100,2013-05-13 07:10:00,
2013-05-13 01:15:00,63.0,47.5,26.87,West,270,0.0,0.0,57,0.00,,,0.00,Rainwise IP-100,2013-05-13 07:15:00,
2013-05-13 01:20:00,62.0,47.0,26.87,West,270,0.0,0.0,57,0.00,,,0.00,Rainwise IP-100,2013-05-13 07:20:00,
2013-05-13 01:25:00,62.0,47.0,26.88,NNW,337,2.0,4.0,58,0.00,,,0.00,Rainwise IP-100,2013-05-13 07:25:00,
2013-05-13 01:30:00,61.0,47.0,26.88,NNW,337,0.0,4.0,59,0.00,,,0.00,Rainwise IP-100,2013-05-13 07:30:00,
2013-05-13 01:35:00,61.0,47.0,26.89,NE,45,0.0,0.0,59,0.00,,,0.00,Rainwise IP-100,2013-05-13 07:35:00,
2013-05-13 01:40:00,61.0,47.5,26.89,SE,135,1.0,3.0,61,0.00,,,0.00,Rainwise IP-100,2013-05-13 07:40:00,
2013-05-13 01:45:00,61.0,47.0,26.89,SE,135,0.0,3.0,60,0.00,,,0.00,Rainwise IP-100,2013-05-13 07:45:00,
2013-05-13 01:50:00,60.0,47.0,26.89,SE,135,0.0,2.0,62,0.00,,,0.00,Rainwise IP-100,2013-05-13 07:50:00,
2013-05-13 01:55:00,60.0,47.0,26.89,SE,135,0.0,0.0,62,0.00,,,0.00,Rainwise IP-100,2013-05-13 07:55:00,
2013-05-13 02:00:00,60.0,47.5,26.89,SSW,202,1.0,4.0,63,0.00,,,0.00,Rainwise IP-100,2013-05-13 08:00:00,
2013-05-13 02:05:00,60.0,47.5,26.89,SSW,202,0.0,3.0,64,0.00,,,0.00,Rainwise IP-100,2013-05-13 08:05:00,
2013-05-13 02:10:00,60.0,47.5,26.89,SSW,202,0.0,2.0,64,0.00,,,0.00,Rainwise IP-100,2013-05-13 08:10:00,
2013-05-13 02:15:00,59.0,47.0,26.90,SSW,202,0.0,0.0,63,0.00,,,0.00,Rainwise IP-100,2013-05-13 08:15:00,
2013-05-13 02:20:00,59.0,47.0,26.90,WSW,247,3.0,5.0,64,0.00,,,0.00,Rainwise IP-100,2013-05-13 08:20:00,
2013-05-13 02:25:00,59.0,47.0,26.90,NNW,337,2.0,4.0,64,0.00,,,0.00,Rainwise IP-100,2013-05-13 08:25:00,
2013-05-13 02:30:00,59.0,47.0,26.90,SSW,202,3.0,4.0,64,0.00,,,0.00,Rainwise IP-100,2013-05-13 08:30:00,
2013-05-13 02:35:00,59.0,47.5,26.90,SSW,202,1.0,3.0,65,0.00,,,0.00,Rainwise IP-100,2013-05-13 08:35:00,
2013-05-13 02:40:00,59.0,47.5,26.90,East,90,0.0,3.0,65,0.00,,,0.00,Rainwise IP-100,2013-05-13 08:40:00,
2013-05-13 02:45:00,59.0,47.5,26.89,East,90,0.0,1.0,65,0.00,,,0.00,Rainwise IP-100,2013-05-13 08:45:00,
2013-05-13 02:50:00,58.0,47.0,26.89,SSW,202,1.0,2.0,66,0.00,,,0.00,Rainwise IP-100,2013-05-13 08:50:00,
2013-05-13 02:55:00,58.0,47.5,26.90,ESE,112,0.0,2.0,67,0.00,,,0.00,Rainwise IP-100,2013-05-13 08:55:00,
2013-05-13 03:00:00,58.0,47.5,26.90,WSW,247,0.0,2.0,67,0.00,,,0.00,Rainwise IP-100,2013-05-13 09:00:00,
2013-05-13 03:05:00,58.0,47.5,26.90,NE,45,0.0,5.0,68,0.00,,,0.00,Rainwise IP-100,2013-05-13 09:05:00,
2013-05-13 03:10:00,58.0,48.0,26.90,WSW,247,3.0,5.0,69,0.00,,,0.00,Rainwise IP-100,2013-05-13 09:10:00,
2013-05-13 03:15:00,57.0,47.5,26.91,SE,135,2.0,3.0,71,0.00,,,0.00,Rainwise IP-100,2013-05-13 09:15:00,
2013-05-13 03:20:00,57.0,47.5,26.91,West,270,0.0,4.0,70,0.00,,,0.00,Rainwise IP-100,2013-05-13 09:20:00,
2013-05-13 03:25:00,57.0,47.5,26.91,South,180,0.0,3.0,71,0.00,,,0.00,Rainwise IP-100,2013-05-13 09:25:00,
2013-05-13 03:30:00,57.0,48.0,26.91,WSW,247,0.0,2.0,72,0.00,,,0.00,Rainwise IP-100,2013-05-13 09:30:00,
2013-05-13 03:35:00,57.0,47.5,26.91,WSW,247,0.0,1.0,71,0.00,,,0.00,Rainwise IP-100,2013-05-13 09:35:00,
2013-05-13 03:40:00,57.0,48.0,26.91,SE,135,0.0,3.0,72,0.00,,,0.00,Rainwise IP-100,2013-05-13 09:40:00,
2013-05-13 03:45:00,57.0,48.0,26.91,ESE,112,0.0,2.0,72,0.00,,,0.00,Rainwise IP-100,2013-05-13 09:45:00,
2013-05-13 03:50:00,56.0,47.5,26.91,ESE,112,0.0,0.0,73,0.00,,,0.00,Rainwise IP-100,2013-05-13 09:50:00,
2013-05-13 03:55:00,56.0,48.0,26.91,ESE,112,1.0,2.0,75,0.00,,,0.00,Rainwise IP-100,2013-05-13 09:55:00,
2013-05-13 04:00:00,56.0,48.0,26.91,ESE,112,0.0,2.0,75,0.00,,,0.00,Rainwise IP-100,2013-05-13 10:00:00,
2013-05-13 04:05:00,56.0,47.5,26.91,ESE,112,0.0,0.0,74,0.00,,,0.00,Rainwise IP-100,2013-05-13 10:05:00,
2013-05-13 04:10:00,55.0,47.5,26.91,ESE,112,0.0,0.0,74,0.00,,,0.00,Rainwise IP-100,2013-05-13 10:10:00,
2013-05-13 04:15:00,56.0,47.5,26.92,ESE,112,0.0,2.0,74,0.00,,,0.00,Rainwise IP-100,2013-05-13 10:15:00,
2013-05-13 04:20:00,55.0,47.5,26.92,ESE,112,0.0,0.0,76,0.00,,,0.00,Rainwise IP-100,2013-05-13 10:20:00,
2013-05-13 04:25:00,55.0,47.5,26.92,ESE,112,0.0,0.0,75,0.00,,,0.00,Rainwise IP-100,2013-05-13 10:25:00,
2013-05-13 04:30:00,55.0,48.0,26.92,ESE,112,0.0,0.0,77,0.00,,,0.00,Rainwise IP-100,2013-05-13 10:30:00,
2013-05-13 04:35:00,55.0,48.0,26.93,ESE,112,0.0,0.0,78,0.00,,,0.00,Rainwise IP-100,2013-05-13 10:35:00,
2013-05-13 04:40:00,55.0,48.0,26.93,East,90,0.0,3.0,77,0.00,,,0.00,Rainwise IP-100,2013-05-13 10:40:00,
2013-05-13 04:45:00,55.0,47.5,26.93,East,90,0.0,2.0,76,0.00,,,0.00,Rainwise IP-100,2013-05-13 10:45:00,
2013-05-13 04:46:00,55.0,47.5,26.93,East,90,0.0,0.0,76,0.00,,,0.00,Rainwise IP-100,2013-05-13 10:46:00,
2013-05-13 04:51:00,55.0,47.5,26.93,East,90,1.0,0.0,76,0.00,,,0.00,Rainwise IP-100,2013-05-13 10:51:00,
2013-05-13 04:56:00,55.0,47.5,26.92,East,90,2.0,2.0,75,0.00,,,0.00,Rainwise IP-100,2013-05-13 10:56:00,
2013-05-13 05:01:00,55.0,47.5,26.92,SSE,157,1.0,3.0,75,0.00,,,0.00,Rainwise IP-100,2013-05-13 11:01:00,
2013-05-13 05:06:00,55.0,47.5,26.92,SSE,157,0.0,3.0,75,0.00,,,0.00,Rainwise IP-100,2013-05-13 11:06:00,
2013-05-13 05:11:00,55.0,47.5,26.92,East,90,0.0,3.0,74,0.00,,,0.00,Rainwise IP-100,2013-05-13 11:11:00,
2013-05-13 05:16:00,54.0,47.0,26.93,SSW,202,1.0,2.0,75,0.00,,,0.00,Rainwise IP-100,2013-05-13 11:16:00,
2013-05-13 05:21:00,54.0,47.0,26.93,SSW,202,0.0,2.0,75,0.00,,,0.00,Rainwise IP-100,2013-05-13 11:21:00,
2013-05-13 05:26:00,54.0,47.0,26.93,SSW,202,0.0,0.0,76,0.00,,,0.00,Rainwise IP-100,2013-05-13 11:26:00,
2013-05-13 05:31:00,54.0,47.5,26.93,SSE,157,1.0,3.0,78,0.00,,,0.00,Rainwise IP-100,2013-05-13 11:31:00,
2013-05-13 05:36:00,54.0,47.0,26.93,SW,225,0.0,4.0,76,0.00,,,0.00,Rainwise IP-100,2013-05-13 11:36:00,
2013-05-13 05:41:00,54.0,47.0,26.93,SSW,202,0.0,2.0,76,0.00,,,0.00,Rainwise IP-100,2013-05-13 11:41:00,
2013-05-13 05:46:00,53.0,45.0,26.93,SSW,202,0.0,0.0,76,0.00,,,0.00,Rainwise IP-100,2013-05-13 11:46:00,
2013-05-13 05:51:00,53.0,46.0,26.93,ESE,112,0.0,2.0,77,0.00,,,0.00,Rainwise IP-100,2013-05-13 11:51:00,
2013-05-13 05:56:00,53.0,46.0,26.94,ESE,112,0.0,0.0,77,0.00,,,0.00,Rainwise IP-100,2013-05-13 11:56:00,
2013-05-13 06:01:00,54.0,47.5,26.94,SSE,157,4.0,5.0,79,0.00,,,0.00,Rainwise IP-100,2013-05-13 12:01:00,
2013-05-13 06:06:00,54.0,47.5,26.93,SSE,157,2.0,5.0,78,0.00,,,0.00,Rainwise IP-100,2013-05-13 12:06:00,
2013-05-13 06:11:00,54.0,47.0,26.93,SSE,157,0.0,4.0,77,0.00,,,0.00,Rainwise IP-100,2013-05-13 12:11:00,
2013-05-13 06:16:00,54.0,47.0,26.93,SSE,157,0.0,0.0,76,0.00,,,0.00,Rainwise IP-100,2013-05-13 12:16:00,
2013-05-13 06:21:00,54.0,47.5,26.93,ESE,112,2.0,0.0,79,0.00,,,0.00,Rainwise IP-100,2013-05-13 12:21:00,
2013-05-13 06:26:00,54.0,47.5,26.94,West,270,3.0,6.0,78,0.00,,,0.00,Rainwise IP-100,2013-05-13 12:26:00,
2013-05-13 06:31:00,54.0,47.5,26.94,SSE,157,0.0,4.0,79,0.00,,,0.00,Rainwise IP-100,2013-05-13 12:31:00,
2013-05-13 06:36:00,54.0,47.5,26.94,West,270,0.0,5.0,78,0.00,,,0.00,Rainwise IP-100,2013-05-13 12:36:00,
2013-05-13 06:41:00,54.0,47.5,26.94,West,270,0.0,0.0,79,0.00,,,0.00,Rainwise IP-100,2013-05-13 12:41:00,
2013-05-13 06:46:00,54.0,47.5,26.94,West,270,0.0,0.0,79,0.00,,,0.00,Rainwise IP-100,2013-05-13 12:46:00,
2013-05-13 06:51:00,54.0,47.5,26.94,West,270,0.0,0.0,78,0.00,,,0.00,Rainwise IP-100,2013-05-13 12:51:00,
2013-05-13 06:56:00,54.0,47.5,26.94,SSE,157,5.0,5.0,79,0.00,,,0.00,Rainwise IP-100,2013-05-13 12:56:00,
2013-05-13 07:01:00,54.0,47.5,26.94,West,270,3.0,5.0,78,0.00,,,0.00,Rainwise IP-100,2013-05-13 13:01:00,
2013-05-13 07:06:00,54.0,47.5,26.93,West,270,0.0,3.0,78,0.00,,,0.00,Rainwise IP-100,2013-05-13 13:06:00,
2013-05-13 07:11:00,54.0,47.5,26.93,West,270,0.0,0.0,78,0.00,,,0.00,Rainwise IP-100,2013-05-13 13:11:00,
2013-05-13 07:16:00,54.0,47.5,26.94,West,270,0.0,1.0,78,0.00,,,0.00,Rainwise IP-100,2013-05-13 13:16:00,
2013-05-13 07:21:00,54.0,47.5,26.94,West,270,0.0,0.0,79,0.00,,,0.00,Rainwise IP-100,2013-05-13 13:21:00,
2013-05-13 07:26:00,55.0,48.0,26.93,West,270,0.0,3.0,78,0.00,,,0.00,Rainwise IP-100,2013-05-13 13:26:00,
2013-05-13 07:31:00,55.0,48.0,26.93,NNE,22,0.0,1.0,78,0.00,,,0.00,Rainwise IP-100,2013-05-13 13:31:00,
2013-05-13 07:36:00,55.0,48.0,26.93,NNE,22,0.0,0.0,78,0.00,,,0.00,Rainwise IP-100,2013-05-13 13:36:00,
2013-05-13 07:41:00,55.0,48.0,26.93,NNE,22,0.0,0.0,77,0.00,,,0.00,Rainwise IP-100,2013-05-13 13:41:00,
2013-05-13 07:46:00,56.0,48.0,26.93,NNE,22,0.0,3.0,76,0.00,,,0.00,Rainwise IP-100,2013-05-13 13:46:00,
2013-05-13 07:51:00,56.0,48.0,26.93,NNE,22,0.0,0.0,75,0.00,,,0.00,Rainwise IP-100,2013-05-13 13:51:00,
2013-05-13 07:56:00,56.0,47.5,26.92,NNE,22,1.0,3.0,74,0.00,,,0.00,Rainwise IP-100,2013-05-13 13:56:00,
2013-05-13 08:01:00,57.0,49.0,26.92,NNE,22,0.0,2.0,74,0.00,,,0.00,Rainwise IP-100,2013-05-13 14:01:00,
2013-05-13 08:06:00,57.0,48.0,26.91,NNE,22,0.0,2.0,72,0.00,,,0.00,Rainwise IP-100,2013-05-13 14:06:00,
2013-05-13 08:11:00,58.0,49.0,26.91,NNE,22,0.0,0.0,71,0.00,,,0.00,Rainwise IP-100,2013-05-13 14:11:00,
2013-05-13 08:16:00,59.0,49.0,26.91,NNE,22,0.0,0.0,70,0.00,,,0.00,Rainwise IP-100,2013-05-13 14:16:00,
2013-05-13 08:21:00,60.0,50.0,26.91,WNW,292,2.0,2.0,69,0.00,,,0.00,Rainwise IP-100,2013-05-13 14:21:00,
2013-05-13 08:22:00,60.0,49.0,26.91,WNW,292,1.0,2.0,67,0.00,,,0.00,Rainwise IP-100,2013-05-13 14:22:00,
2013-05-13 08:27:00,61.0,50.0,26.89,WNW,292,0.0,1.0,66,0.00,,,0.00,Rainwise IP-100,2013-05-13 14:27:00,
2013-05-13 08:32:00,63.0,50.0,26.89,WNW,292,0.0,0.0,62,0.00,,,0.00,Rainwise IP-100,2013-05-13 14:32:00,
2013-05-13 08:37:00,65.0,50.5,26.86,SSE,157,0.0,3.0,59,0.00,,,0.00,Rainwise IP-100,2013-05-13 14:37:00,
2013-05-13 08:42:00,66.0,49.0,26.86,SE,135,4.0,5.0,54,0.00,,,0.00,Rainwise IP-100,2013-05-13 14:42:00,
2013-05-13 08:47:00,66.0,49.0,26.85,South,180,2.0,6.0,55,0.00,,,0.00,Rainwise IP-100,2013-05-13 14:47:00,
2013-05-13 08:52:00,67.0,50.0,26.85,SSE,157,2.0,4.0,53,0.00,,,0.00,Rainwise IP-100,2013-05-13 14:52:00,
2013-05-13 08:57:00,68.0,50.0,26.84,SSE,157,1.0,4.0,52,0.00,,,0.00,Rainwise IP-100,2013-05-13 14:57:00,
2013-05-13 09:02:00,68.0,49.0,26.84,South,180,2.0,4.0,51,0.00,,,0.00,Rainwise IP-100,2013-05-13 15:02:00,
2013-05-13 09:07:00,69.0,50.0,26.83,South,180,5.0,5.0,50,0.00,,,0.00,Rainwise IP-100,2013-05-13 15:07:00,
2013-05-13 09:12:00,69.0,49.0,26.83,East,90,0.0,5.0,49,0.00,,,0.00,Rainwise IP-100,2013-05-13 15:12:00,
2013-05-13 09:17:00,69.0,49.0,26.83,ENE,67,1.0,5.0,49,0.00,,,0.00,Rainwise IP-100,2013-05-13 15:17:00,
2013-05-13 09:22:00,69.0,50.0,26.83,ENE,67,1.0,3.0,51,0.00,,,0.00,Rainwise IP-100,2013-05-13 15:22:00,
2013-05-13 09:27:00,69.0,50.0,26.83,SSW,202,0.0,3.0,50,0.00,,,0.00,Rainwise IP-100,2013-05-13 15:27:00,
2013-05-13 09:32:00,70.0,50.0,26.83,WSW,247,0.0,4.0,48,0.00,,,0.00,Rainwise IP-100,2013-05-13 15:32:00,
2013-05-13 09:37:00,71.0,50.0,26.82,NNW,337,1.0,5.0,47,0.00,,,0.00,Rainwise IP-100,2013-05-13 15:37:00,
2013-05-13 09:42:00,71.0,50.0,26.82,NE,45,0.0,5.0,48,0.00,,,0.00,Rainwise IP-100,2013-05-13 15:42:00,
2013-05-13 09:47:00,71.0,49.0,26.82,SSW,202,0.0,5.0,46,0.00,,,0.00,Rainwise IP-100,2013-05-13 15:47:00,
2013-05-13 09:52:00,71.0,50.0,26.82,WSW,247,0.0,5.0,48,0.00,,,0.00,Rainwise IP-100,2013-05-13 15:52:00,
2013-05-13 09:57:00,71.0,50.0,26.81,West,270,7.0,9.0,47,0.00,,,0.00,Rainwise IP-100,2013-05-13 15:57:00,
2013-05-13 10:02:00,71.0,50.0,26.81,SW,225,0.0,9.0,47,0.00,,,0.00,Rainwise IP-100,2013-05-13 16:02:00,
2013-05-13 10:07:00,72.0,50.0,26.82,SSW,202,0.0,4.0,46,0.00,,,0.00,Rainwise IP-100,2013-05-13 16:07:00,
2013-05-13 10:12:00,71.0,49.0,26.82,SW,225,2.0,7.0,46,0.00,,,0.00,Rainwise IP-100,2013-05-13 16:12:00,
2013-05-13 10:17:00,70.0,49.0,26.81,WNW,292,4.0,7.0,47,0.00,,,0.00,Rainwise IP-100,2013-05-13 16:17:00,
2013-05-13 10:22:00,70.0,50.0,26.81,NW,315,2.0,8.0,48,0.00,,,0.00,Rainwise IP-100,2013-05-13 16:22:00,
2013-05-13 10:27:00,70.0,50.0,26.81,WNW,292,6.0,8.0,48,0.00,,,0.00,Rainwise IP-100,2013-05-13 16:27:00,
2013-05-13 10:32:00,71.0,50.0,26.81,NW,315,4.0,7.0,47,0.00,,,0.00,Rainwise IP-100,2013-05-13 16:32:00,
2013-05-13 10:37:00,73.0,50.5,26.79,NW,315,0.0,6.0,45,0.00,,,0.00,Rainwise IP-100,2013-05-13 16:37:00,
2013-05-13 10:42:00,73.0,49.0,26.79,WNW,292,7.0,7.0,43,0.00,,,0.00,Rainwise IP-100,2013-05-13 16:42:00,
2013-05-13 10:47:00,73.0,49.0,26.79,NW,315,2.0,7.0,43,0.00,,,0.00,Rainwise IP-100,2013-05-13 16:47:00,
2013-05-13 10:52:00,73.0,49.0,26.79,WSW,247,2.0,7.0,43,0.00,,,0.00,Rainwise IP-100,2013-05-13 16:52:00,
2013-05-13 10:57:00,73.0,48.0,26.79,SE,135,4.0,6.0,42,0.00,,,0.00,Rainwise IP-100,2013-05-13 16:57:00,
2013-05-13 11:02:00,74.0,49.0,26.79,ESE,112,3.0,6.0,41,0.00,,,0.00,Rainwise IP-100,2013-05-13 17:02:00,
2013-05-13 11:07:00,74.0,49.0,26.78,West,270,6.0,6.0,41,0.00,,,0.00,Rainwise IP-100,2013-05-13 17:07:00,
2013-05-13 11:12:00,73.0,48.0,26.78,NW,315,6.0,7.0,42,0.00,,,0.00,Rainwise IP-100,2013-05-13 17:12:00,
2013-05-13 11:17:00,73.0,48.0,26.79,WNW,292,2.0,7.0,42,0.00,,,0.00,Rainwise IP-100,2013-05-13 17:17:00,
2013-05-13 11:22:00,74.0,47.5,26.79,ESE,112,2.0,4.0,39,0.00,,,0.00,Rainwise IP-100,2013-05-13 17:22:00,
2013-05-13 11:27:00,74.0,47.0,26.77,SE,135,2.0,6.0,38,0.00,,,0.00,Rainwise IP-100,2013-05-13 17:27:00,
2013-05-13 11:32:00,75.0,47.5,26.77,NW,315,5.0,8.0,38,0.00,,,0.00,Rainwise IP-100,2013-05-13 17:32:00,
2013-05-13 11:37:00,74.0,47.5,26.76,WNW,292,5.0,10.0,39,0.00,,,0.00,Rainwise IP-100,2013-05-13 17:37:00,
2013-05-13 11:42:00,74.0,48.0,26.76,NW,315,5.0,8.0,40,0.00,,,0.00,Rainwise IP-100,2013-05-13 17:42:00,
2013-05-13 11:47:00,74.0,49.0,26.76,North,360,3.0,9.0,41,0.00,,,0.00,Rainwise IP-100,2013-05-13 17:47:00,
2013-05-13 11:52:00,75.0,48.0,26.76,NW,315,3.0,8.0,39,0.00,,,0.00,Rainwise IP-100,2013-05-13 17:52:00,
2013-05-13 11:57:00,75.0,47.5,26.75,ENE,67,3.0,8.0,37,0.00,,,0.00,Rainwise IP-100,2013-05-13 17:57:00,
2013-05-13 12:02:00,76.0,47.5,26.75,East,90,5.0,7.0,37,0.00,,,0.00,Rainwise IP-100,2013-05-13 18:02:00,
2013-05-13 12:07:00,76.0,47.5,26.75,North,360,0.0,7.0,37,0.00,,,0.00,Rainwise IP-100,2013-05-13 18:07:00,
2013-05-13 12:12:00,75.0,47.5,26.75,NW,315,7.0,9.0,37,0.00,,,0.00,Rainwise IP-100,2013-05-13 18:12:00,
2013-05-13 12:17:00,76.0,47.0,26.74,NE,45,4.0,8.0,36,0.00,,,0.00,Rainwise IP-100,2013-05-13 18:17:00,
2013-05-13 12:22:00,75.0,47.5,26.74,SSE,157,6.0,7.0,37,0.00,,,0.00,Rainwise IP-100,2013-05-13 18:22:00,
2013-05-13 12:27:00,76.0,47.5,26.74,NW,315,7.0,9.0,37,0.00,,,0.00,Rainwise IP-100,2013-05-13 18:27:00,
2013-05-13 12:32:00,76.0,48.0,26.74,NW,315,1.0,10.0,38,0.00,,,0.00,Rainwise IP-100,2013-05-13 18:32:00,
2013-05-13 12:37:00,76.0,47.5,26.73,NE,45,7.0,9.0,37,0.00,,,0.00,Rainwise IP-100,2013-05-13 18:37:00,
2013-05-13 12:42:00,74.0,46.0,26.73,WSW,247,4.0,9.0,37,0.00,,,0.00,Rainwise IP-100,2013-05-13 18:42:00,
2013-05-13 12:47:00,74.0,47.5,26.74,WNW,292,7.0,8.0,39,0.00,,,0.00,Rainwise IP-100,2013-05-13 18:47:00,
2013-05-13 12:52:00,74.0,47.5,26.74,NNW,337,4.0,7.0,39,0.00,,,0.00,Rainwise IP-100,2013-05-13 18:52:00,
2013-05-13 12:57:00,75.0,47.5,26.73,NW,315,0.0,6.0,37,0.00,,,0.00,Rainwise IP-100,2013-05-13 18:57:00,
2013-05-13 13:02:00,76.0,47.5,26.73,ENE,67,2.0,7.0,37,0.00,,,0.00,Rainwise IP-100,2013-05-13 19:02:00,
2013-05-13 13:07:00,75.0,47.5,26.73,North,360,4.0,7.0,37,0.00,,,0.00,Rainwise IP-100,2013-05-13 19:07:00,
2013-05-13 13:12:00,75.0,47.5,26.73,SW,225,0.0,6.0,37,0.00,,,0.00,Rainwise IP-100,2013-05-13 19:12:00,
2013-05-13 13:17:00,77.0,48.0,26.70,NW,315,4.0,7.0,36,0.00,,,0.00,Rainwise IP-100,2013-05-13 19:17:00,
2013-05-13 13:22:00,77.0,48.0,26.70,NNW,337,7.0,7.0,36,0.00,,,0.00,Rainwise IP-100,2013-05-13 19:22:00,
2013-05-13 13:27:00,76.0,47.5,26.71,NNW,337,3.0,9.0,37,0.00,,,0.00,Rainwise IP-100,2013-05-13 19:27:00,
2013-05-13 13:32:00,76.0,47.5,26.71,NNW,337,3.0,7.0,37,0.00,,,0.00,Rainwise IP-100,2013-05-13 19:32:00,
2013-05-13 13:37:00,76.0,47.0,26.69,North,360,7.0,10.0,36,0.00,,,0.00,Rainwise IP-100,2013-05-13 19:37:00,
2013-05-13 13:42:00,76.0,47.5,26.69,WSW,247,6.0,7.0,37,0.00,,,0.00,Rainwise IP-100,2013-05-13 19:42:00,
2013-05-13 13:47:00,75.0,47.5,26.69,NNW,337,1.0,9.0,37,0.00,,,0.00,Rainwise IP-100,2013-05-13 19:47:00,
2013-05-13 13:52:00,76.0,47.5,26.69,NNW,337,4.0,9.0,37,0.00,,,0.00,Rainwise IP-100,2013-05-13 19:52:00,
2013-05-13 13:57:00,77.0,48.0,26.68,SSE,157,1.0,5.0,36,0.00,,,0.00,Rainwise IP-100,2013-05-13 19:57:00,
2013-05-13 14:02:00,78.0,47.5,26.68,SSE,157,6.0,6.0,34,0.00,,,0.00,Rainwise IP-100,2013-05-13 20:02:00,
2013-05-13 14:07:00,79.0,47.0,26.66,ENE,67,3.0,7.0,32,0.00,,,0.00,Rainwise IP-100,2013-05-13 20:07:00,
2013-05-13 14:12:00,78.0,47.5,26.66,WNW,292,4.0,9.0,34,0.00,,,0.00,Rainwise IP-100,2013-05-13 20:12:00,
2013-05-13 14:17:00,77.0,49.0,26.67,WNW,292,10.0,10.0,37,0.00,,,0.00,Rainwise IP-100,2013-05-13 20:17:00,
2013-05-13 14:22:00,77.0,48.0,26.67,North,360,4.0,12.0,36,0.00,,,0.00,Rainwise IP-100,2013-05-13 20:22:00,
2013-05-13 14:27:00,77.0,48.0,26.67,West,270,1.0,6.0,36,0.00,,,0.00,Rainwise IP-100,2013-05-13 20:27:00,
2013-05-13 14:32:00,78.0,47.5,26.67,ENE,67,1.0,7.0,34,0.00,,,0.00,Rainwise IP-100,2013-05-13 20:32:00,
2013-05-13 14:37:00,77.0,48.0,26.65,WNW,292,6.0,7.0,36,0.00,,,0.00,Rainwise IP-100,2013-05-13 20:37:00,
2013-05-13 14:42:00,77.0,47.5,26.65,South,180,0.0,8.0,35,0.00,,,0.00,Rainwise IP-100,2013-05-13 20:42:00,
2013-05-13 14:47:00,78.0,47.5,26.64,North,360,2.0,8.0,34,0.00,,,0.00,Rainwise IP-100,2013-05-13 20:47:00,
2013-05-13 14:52:00,78.0,47.5,26.64,North,360,2.0,9.0,34,0.00,,,0.00,Rainwise IP-100,2013-05-13 20:52:00,
2013-05-13 14:57:00,78.0,47.5,26.64,NNW,337,4.0,8.0,34,0.00,,,0.00,Rainwise IP-100,2013-05-13 20:57:00,
2013-05-13 15:02:00,78.0,46.0,26.64,NNE,22,2.0,10.0,32,0.00,,,0.00,Rainwise IP-100,2013-05-13 21:02:00,
2013-05-13 15:07:00,78.0,47.0,26.63,West,270,7.0,10.0,33,0.00,,,0.00,Rainwise IP-100,2013-05-13 21:07:00,
2013-05-13 15:12:00,78.0,46.0,26.63,South,180,0.0,9.0,32,0.00,,,0.00,Rainwise IP-100,2013-05-13 21:12:00,
2013-05-13 15:17:00,80.0,47.0,26.61,SW,225,4.0,5.0,31,0.00,,,0.00,Rainwise IP-100,2013-05-13 21:17:00,
2013-05-13 15:22:00,80.0,47.0,26.61,NW,315,4.0,10.0,31,0.00,,,0.00,Rainwise IP-100,2013-05-13 21:22:00,
2013-05-13 15:27:00,82.0,47.5,26.59,WNW,292,11.0,11.0,30,0.00,,,0.00,Rainwise IP-100,2013-05-13 21:27:00,
2013-05-13 15:32:00,82.0,47.0,26.59,West,270,5.0,13.0,29,0.00,,,0.00,Rainwise IP-100,2013-05-13 21:32:00,
2013-05-13 15:37:00,81.0,42.0,26.57,NNW,337,5.0,15.0,25,0.00,,,0.00,Rainwise IP-100,2013-05-13 21:37:00,
2013-05-13 15:42:00,82.0,44.0,26.57,WNW,292,7.0,14.0,26,0.00,,,0.00,Rainwise IP-100,2013-05-13 21:42:00,
2013-05-13 15:47:00,83.0,44.0,26.56,SSW,202,3.0,18.0,25,0.00,,,0.00,Rainwise IP-100,2013-05-13 21:47:00,
2013-05-13 15:52:00,82.0,41.0,26.56,West,270,0.0,12.0,24,0.00,,,0.00,Rainwise IP-100,2013-05-13 21:52:00,
2013-05-13 15:57:00,82.0,44.0,26.55,WSW,247,3.0,11.0,26,0.00,,,0.00,Rainwise IP-100,2013-05-13 21:57:00,
2013-05-13 16:02:00,81.0,44.0,26.55,SW,225,4.0,9.0,27,0.00,,,0.00,Rainwise IP-100,2013-05-13 22:02:00,
2013-05-13 16:07:00,80.0,43.0,26.55,SE,135,2.0,16.0,27,0.00,,,0.00,Rainwise IP-100,2013-05-13 22:07:00,
2013-05-13 16:12:00,79.0,43.0,26.55,West,270,4.0,9.0,28,0.00,,,0.00,Rainwise IP-100,2013-05-13 22:12:00,
2013-05-13 16:17:00,78.0,44.0,26.55,WNW,292,9.0,16.0,30,0.00,,,0.00,Rainwise IP-100,2013-05-13 22:17:00,
2013-05-13 16:22:00,77.0,43.0,26.55,WNW,292,6.0,13.0,30,0.00,,,0.00,Rainwise IP-100,2013-05-13 22:22:00,
2013-05-13 16:27:00,77.0,46.0,26.56,WNW,292,9.0,10.0,33,0.00,,,0.00,Rainwise IP-100,2013-05-13 22:27:00,
2013-05-13 16:32:00,76.0,47.0,26.56,WSW,247,7.0,13.0,35,0.00,,,0.00,Rainwise IP-100,2013-05-13 22:32:00,
2013-05-13 16:37:00,76.0,47.0,26.56,West,270,4.0,12.0,35,0.00,,,0.00,Rainwise IP-100,2013-05-13 22:37:00,
2013-05-13 16:42:00,75.0,46.0,26.56,West,270,3.0,12.0,35,0.00,,,0.00,Rainwise IP-100,2013-05-13 22:42:00,
2013-05-13 16:47:00,75.0,47.5,26.55,West,270,6.0,9.0,37,0.00,,,0.00,Rainwise IP-100,2013-05-13 22:47:00,
2013-05-13 16:52:00,75.0,47.5,26.55,NW,315,8.0,12.0,37,0.00,,,0.00,Rainwise IP-100,2013-05-13 22:52:00,
2013-05-13 16:57:00,74.0,47.0,26.56,WNW,292,11.0,15.0,38,0.00,,,0.00,Rainwise IP-100,2013-05-13 22:57:00,
2013-05-13 17:02:00,72.0,48.0,26.56,West,270,19.0,23.0,43,0.00,,,0.00,Rainwise IP-100,2013-05-13 23:02:00,
2013-05-13 17:07:00,65.0,55.0,26.65,North,360,5.0,34.0,71,0.48,,,0.08,Rainwise IP-100,2013-05-13 23:07:00,
2013-05-13 17:12:00,62.0,53.5,26.65,West,270,9.0,27.0,74,0.60,,,0.10,Rainwise IP-100,2013-05-13 23:12:00,
2013-05-13 17:17:00,61.0,53.5,26.69,WNW,292,7.0,16.0,75,0.24,,,0.12,Rainwise IP-100,2013-05-13 23:17:00,
2013-05-13 17:22:00,61.0,54.0,26.69,West,270,3.0,10.0,77,0.12,,,0.12,Rainwise IP-100,2013-05-13 23:22:00,
2013-05-13 17:27:00,62.0,54.0,26.70,West,270,7.0,13.0,75,0.00,,,0.12,Rainwise IP-100,2013-05-13 23:27:00,
2013-05-13 17:32:00,63.0,54.5,26.70,West,270,1.0,13.0,74,0.00,,,0.12,Rainwise IP-100,2013-05-13 23:32:00,
2013-05-13 17:37:00,63.0,53.5,26.70,West,270,0.0,9.0,71,0.00,,,0.12,Rainwise IP-100,2013-05-13 23:37:00,
2013-05-13 17:42:00,64.0,53.5,26.70,WNW,292,0.0,6.0,69,0.00,,,0.12,Rainwise IP-100,2013-05-13 23:42:00,
2013-05-13 17:47:00,64.0,54.5,26.70,NNE,22,0.0,6.0,71,0.00,,,0.12,Rainwise IP-100,2013-05-13 23:47:00,
2013-05-13 17:52:00,63.0,53.0,26.70,West,270,2.0,6.0,69,0.00,,,0.12,Rainwise IP-100,2013-05-13 23:52:00,
2013-05-13 17:57:00,63.0,53.5,26.72,North,360,6.0,6.0,71,0.00,,,0.12,Rainwise IP-100,2013-05-13 23:57:00,
2013-05-13 18:02:00,63.0,53.5,26.72,WNW,292,0.0,7.0,70,0.00,,,0.12,Rainwise IP-100,2013-05-14 00:02:00,
2013-05-13 18:07:00,63.0,53.5,26.74,WNW,292,6.0,6.0,70,0.00,,,0.12,Rainwise IP-100,2013-05-14 00:07:00,
2013-05-13 18:12:00,64.0,54.5,26.74,NW,315,10.0,20.0,72,0.00,,,0.12,Rainwise IP-100,2013-05-14 00:12:00,
2013-05-13 18:17:00,62.0,54.5,26.76,WSW,247,7.0,20.0,77,0.00,,,0.12,Rainwise IP-100,2013-05-14 00:17:00,
2013-05-13 18:22:00,61.0,54.5,26.76,WNW,292,6.0,15.0,80,0.06,,,0.13,Rainwise IP-100,2013-05-14 00:22:00,
2013-05-13 18:27:00,60.0,54.5,26.78,West,270,15.0,22.0,82,0.12,,,0.14,Rainwise IP-100,2013-05-14 00:27:00,
2013-05-13 18:32:00,60.0,55.0,26.78,East,90,3.0,15.0,84,0.12,,,0.15,Rainwise IP-100,2013-05-14 00:32:00,
2013-05-13 18:37:00,60.0,56.0,26.72,East,90,7.0,10.0,86,0.06,,,0.15,Rainwise IP-100,2013-05-14 00:37:00,
2013-05-13 18:42:00,61.0,57.0,26.72,North,360,9.0,12.0,87,0.00,,,0.15,Rainwise IP-100,2013-05-14 00:42:00,
2013-05-13 18:47:00,62.0,56.0,26.73,NNW,337,5.0,13.0,80,0.00,,,0.15,Rainwise IP-100,2013-05-14 00:47:00,
2013-05-13 18:52:00,62.0,54.5,26.73,NNE,22,3.0,13.0,77,0.00,,,0.15,Rainwise IP-100,2013-05-14 00:52:00,
2013-05-13 18:57:00,63.0,54.0,26.74,North,360,4.0,12.0,72,0.00,,,0.15,Rainwise IP-100,2013-05-14 00:57:00,
2013-05-13 19:02:00,62.0,52.0,26.74,NE,45,5.0,10.0,69,0.00,,,0.15,Rainwise IP-100,2013-05-14 01:02:00,
2013-05-13 19:07:00,62.0,53.5,26.75,NNW,337,6.0,7.0,74,0.00,,,0.15,Rainwise IP-100,2013-05-14 01:07:00,
2013-05-13 19:12:00,62.0,52.0,26.75,NNW,337,4.0,10.0,70,0.00,,,0.15,Rainwise IP-100,2013-05-14 01:12:00,
2013-05-13 19:17:00,62.0,53.0,26.74,NNW,337,7.0,11.0,71,0.00,,,0.15,Rainwise IP-100,2013-05-14 01:17:00,
2013-05-13 19:22:00,62.0,52.0,26.74,NW,315,3.0,10.0,70,0.00,,,0.15,Rainwise IP-100,2013-05-14 01:22:00,
2013-05-13 19:27:00,62.0,53.0,26.74,West,270,6.0,7.0,71,0.00,,,0.15,Rainwise IP-100,2013-05-14 01:27:00,
2013-05-13 19:32:00,62.0,52.0,26.74,WNW,292,5.0,7.0,70,0.00,,,0.15,Rainwise IP-100,2013-05-14 01:32:00,
2013-05-13 19:37:00,62.0,52.0,26.77,South,180,6.0,6.0,70,0.00,,,0.15,Rainwise IP-100,2013-05-14 01:37:00,
2013-05-13 19:42:00,62.0,53.5,26.77,SSW,202,2.0,7.0,73,0.00,,,0.15,Rainwise IP-100,2013-05-14 01:42:00,
2013-05-13 19:47:00,61.0,53.0,26.77,West,270,2.0,5.0,74,0.00,,,0.15,Rainwise IP-100,2013-05-14 01:47:00,
2013-05-13 19:52:00,61.0,52.0,26.77,West,270,6.0,6.0,72,0.00,,,0.15,Rainwise IP-100,2013-05-14 01:52:00,
2013-05-13 19:57:00,61.0,53.5,26.79,West,270,3.0,7.0,75,0.00,,,0.15,Rainwise IP-100,2013-05-14 01:57:00,
2013-05-13 20:02:00,61.0,54.0,26.79,SW,225,6.0,9.0,78,0.00,,,0.15,Rainwise IP-100,2013-05-14 02:02:00,
2013-05-13 20:07:00,61.0,53.5,26.80,WNW,292,15.0,19.0,76,0.00,,,0.16,Rainwise IP-100,2013-05-14 02:07:00,
2013-05-13 20:12:00,56.0,48.0,26.80,WNW,292,19.0,22.0,76,0.06,,,0.16,Rainwise IP-100,2013-05-14 02:12:00,
2013-05-13 20:17:00,54.0,48.0,26.92,WNW,292,13.0,26.0,81,0.12,,,0.17,Rainwise IP-100,2013-05-14 02:17:00,
2013-05-13 20:22:00,53.0,48.0,26.92,NW,315,10.0,17.0,84,0.12,,,0.18,Rainwise IP-100,2013-05-14 02:22:00,
2013-05-13 20:27:00,53.0,48.0,26.87,NW,315,10.0,22.0,86,0.12,,,0.19,Rainwise IP-100,2013-05-14 02:27:00,
2013-05-13 20:32:00,52.0,47.5,26.87,NW,315,11.0,16.0,85,0.06,,,0.19,Rainwise IP-100,2013-05-14 02:32:00,
2013-05-13 20:37:00,52.0,48.0,26.92,NNE,22,1.0,16.0,86,0.00,,,0.19,Rainwise IP-100,2013-05-14 02:37:00,
2013-05-13 20:42:00,52.0,48.0,26.92,North,360,5.0,10.0,86,0.00,,,0.19,Rainwise IP-100,2013-05-14 02:42:00,
2013-05-13 20:47:00,52.0,48.0,26.93,NE,45,3.0,9.0,87,0.00,,,0.19,Rainwise IP-100,2013-05-14 02:47:00,
2013-05-13 20:52:00,52.0,48.0,26.93,SE,135,6.0,6.0,87,0.00,,,0.19,Rainwise IP-100,2013-05-14 02:52:00,
2013-05-13 20:57:00,52.0,47.5,26.95,SE,135,1.0,6.0,84,0.00,,,0.19,Rainwise IP-100,2013-05-14 02:57:00,
2013-05-13 21:02:00,52.0,48.0,26.95,North,360,7.0,11.0,87,0.00,,,0.19,Rainwise IP-100,2013-05-14 03:02:00,
2013-05-13 21:07:00,52.0,48.0,26.94,North,360,6.0,9.0,87,0.00,,,0.19,Rainwise IP-100,2013-05-14 03:07:00,
2013-05-13 21:12:00,52.0,48.0,26.94,NNE,22,4.0,10.0,88,0.00,,,0.19,Rainwise IP-100,2013-05-14 03:12:00,
2013-05-13 21:17:00,52.0,48.0,26.94,ENE,67,7.0,9.0,87,0.00,,,0.19,Rainwise IP-100,2013-05-14 03:17:00,
2013-05-13 21:22:00,52.0,47.5,26.94,NNE,22,6.0,9.0,84,0.00,,,0.19,Rainwise IP-100,2013-05-14 03:22:00,
2013-05-13 21:27:00,52.0,47.5,26.95,North,360,2.0,9.0,84,0.00,,,0.19,Rainwise IP-100,2013-05-14 03:27:00,
2013-05-13 21:32:00,52.0,48.0,26.95,NNE,22,0.0,7.0,86,0.06,,,0.20,Rainwise IP-100,2013-05-14 03:32:00,
2013-05-13 21:37:00,52.0,48.0,26.96,North,360,6.0,6.0,87,0.12,,,0.21,Rainwise IP-100,2013-05-14 03:37:00,
2013-05-13 21:42:00,52.0,46.0,26.96,ENE,67,7.0,14.0,80,0.06,,,0.21,Rainwise IP-100,2013-05-14 03:42:00,
2013-05-13 21:47:00,52.0,47.0,26.95,North,360,5.0,10.0,83,0.00,,,0.21,Rainwise IP-100,2013-05-14 03:47:00,
2013-05-13 21:52:00,52.0,46.0,26.95,East,90,3.0,9.0,79,0.00,,,0.21,Rainwise IP-100,2013-05-14 03:52:00,
2013-05-13 21:57:00,52.0,47.0,26.96,NW,315,0.0,6.0,83,0.00,,,0.21,Rainwise IP-100,2013-05-14 03:57:00,
2013-05-13 22:01:00,51.0,47.0,26.96,ENE,67,0.0,5.0,83,0.00,,,0.21,Rainwise IP-100,2013-05-14 04:01:00,
2013-05-13 22:06:00,52.0,47.5,26.96,ENE,67,1.0,5.0,85,0.00,,,0.21,Rainwise IP-100,2013-05-14 04:06:00,
2013-05-13 22:11:00,52.0,48.0,26.96,ESE,112,1.0,5.0,87,0.00,,,0.21,Rainwise IP-100,2013-05-14 04:11:00,
2013-05-13 22:16:00,52.0,48.0,26.97,NE,45,3.0,5.0,87,0.06,,,0.22,Rainwise IP-100,2013-05-14 04:16:00,
2013-05-13 22:21:00,52.0,48.0,26.97,ESE,112,1.0,5.0,87,0.06,,,0.22,Rainwise IP-100,2013-05-14 04:21:00,
2013-05-13 22:26:00,52.0,47.5,26.97,SE,135,0.0,6.0,85,0.00,,,0.22,Rainwise IP-100,2013-05-14 04:26:00,
2013-05-13 22:31:00,52.0,47.0,26.97,ESE,112,4.0,6.0,83,0.00,,,0.22,Rainwise IP-100,2013-05-14 04:31:00,
2013-05-13 22:36:00,52.0,47.0,26.97,SSE,157,3.0,7.0,82,0.00,,,0.22,Rainwise IP-100,2013-05-14 04:36:00,
2013-05-13 22:41:00,52.0,47.5,26.97,WNW,292,3.0,3.0,84,0.00,,,0.22,Rainwise IP-100,2013-05-14 04:41:00,
2013-05-13 22:46:00,52.0,47.5,26.97,WNW,292,0.0,5.0,85,0.00,,,0.22,Rainwise IP-100,2013-05-14 04:46:00,
2013-05-13 22:51:00,51.0,45.0,26.97,WNW,292,0.0,4.0,80,0.00,,,0.22,Rainwise IP-100,2013-05-14 04:51:00,
2013-05-13 22:56:00,52.0,45.0,26.98,WNW,292,0.0,2.0,78,0.00,,,0.22,Rainwise IP-100,2013-05-14 04:56:00,
2013-05-13 23:01:00,51.0,45.0,26.98,WNW,292,0.0,0.0,80,0.00,,,0.22,Rainwise IP-100,2013-05-14 05:01:00,
2013-05-13 23:06:00,52.0,43.0,26.98,ESE,112,0.0,6.0,73,0.00,,,0.22,Rainwise IP-100,2013-05-14 05:06:00,
2013-05-13 23:11:00,52.0,44.0,26.98,ESE,112,0.0,3.0,75,0.00,,,0.22,Rainwise IP-100,2013-05-14 05:11:00,
2013-05-13 23:16:00,52.0,45.0,26.97,West,270,0.0,6.0,78,0.00,,,0.22,Rainwise IP-100,2013-05-14 05:16:00,
2013-05-13 23:21:00,51.0,43.0,26.97,SSW,202,3.0,6.0,74,0.00,,,0.22,Rainwise IP-100,2013-05-14 05:21:00,
2013-05-13 23:26:00,52.0,42.0,26.97,WSW,247,0.0,9.0,69,0.00,,,0.22,Rainwise IP-100,2013-05-14 05:26:00,
2013-05-13 23:31:00,52.0,42.0,26.97,South,180,0.0,3.0,70,0.00,,,0.22,Rainwise IP-100,2013-05-14 05:31:00,
2013-05-13 23:36:00,52.0,42.0,26.97,SSE,157,0.0,3.0,70,0.00,,,0.22,Rainwise IP-100,2013-05-14 05:36:00,
2013-05-13 23:41:00,51.0,42.0,26.97,SE,135,2.0,3.0,71,0.00,,,0.22,Rainwise IP-100,2013-05-14 05:41:00,
2013-05-13 23:46:00,52.0,42.0,26.96,WSW,247,1.0,6.0,68,0.00,,,0.22,Rainwise IP-100,2013-05-14 05:46:00,
2013-05-13 23:51:00,52.0,41.0,26.96,SSW,202,2.0,6.0,66,0.00,,,0.22,Rainwise IP-100,2013-05-14 05:51:00,
2013-05-13 23:56:00,52.0,40.0,26.96,West,270,1.0,5.0,65,0.00,,,0.22,Rainwise IP-100,2013-05-14 05:56:00,